Volver al catálogo

SJ-11-07

ActivoCienciaSSO
NORAD 40261·PAYLOAD·🇨🇳 China

Lanzado Sep 28, 2014 desde Jiuquan Satellite Launch Center

Loading…

Próximos Pases (próximas 24 horas)

TLE

ActualizadoSource: Space-Track

Época: Sep 14, 2026, 15:32 UTC

1 40261U 14059A   26257.64746198  .00000393  00000-0  84136-4 0  9990
2 40261  97.9864 324.2458 0009591 222.9297 137.1158 14.63809932638001

Sigue SJ-11-07 en tiempo real con AllMySat

Download on the App Store